Location: Barcelona
(41.3830°N, 2.1830°E)
Time: 06:52:09
(UTC+02:00)

ISS - Pass Details

Date: 18 March 2018
Orbit: 403 x 408 km, 51.6° (Epoch: 21 September)

Event Time Altitude Azimuth Distance (km) Brightness Sun altitude
Exits shadow 05:08:48 49° 4° (N) 541 -3.2 -21.1°
Maximum altitude 05:09:11 53° 31° (NNE) 517 -3.1 -21.0°
Drops below altitude 10° 05:12:26 10° 110° (ESE) 1,477 -0.3 -20.4°
Sets 05:14:32 0° 115° (ESE) 2,332 0.8 -20.1°
